Overview Statistics Trail Chart Weather Telemetry Raw packets
 

This is the latest recevied weather packets stored in our database for station/object IR9AK-10. If no packets are shown the sender has not sent any weather packets the latest 10 day(s).

<< 20 21 22 23 24 25 26 >>
Time Temp. Humidity Pressure Rain* Wind** Luminosity Snow
1788287981 39.44° C 37% 1062.1 hPa - - - -
1788287382 39.44° C 37% 1062 hPa - - - -
1788286782 39.44° C 36% 1061.9 hPa - - - -
1788286184 40° C 36% 1061.8 hPa - - - -
1788285604 40° C 36% 1061.6 hPa - - - -
1788284985 40° C 36% 1061.6 hPa - - - -
1788284387 40° C 36% 1061.5 hPa - - - -
1788283787 40.56° C 36% 1061.5 hPa - - - -
1788283187 40.56° C 36% 1061.5 hPa - - - -
1788282588 40.56° C 36% 1061.5 hPa - - - -
1788281990 40.56° C 36% 1061.5 hPa - - - -
1788281392 40.56° C 36% 1061.5 hPa - - - -
1788280793 40.56° C 36% 1061.4 hPa - - - -
1788280194 40.56° C 36% 1061.4 hPa - - - -
1788279596 40.56° C 35% 1061.4 hPa - - - -
1788278997 40.56° C 35% 1061.5 hPa - - - -
1788278398 40.56° C 35% 1061.5 hPa - - - -
1788277799 40.56° C 35% 1061.5 hPa - - - -
1788277199 40.56° C 35% 1061.5 hPa - - - -
1788276600 40.56° C 35% 1061.5 hPa - - - -
1788276001 40.56° C 34% 1061.4 hPa - - - -
1788275401 42.22° C 32% 1061.5 hPa - - - -
1788274802 45.56° C 28% 1061.2 hPa - - - -
1788274203 46.67° C 26% 1061.3 hPa - - - -
1788273605 47.22° C 26% 1061.3 hPa - - - -

* Rain since midnight (hover to see other rain measurements)
** Current wind speed in m/s (hover to see current wind gust speed)